• In Russia
  • List of Countries
  • For 7 days
  • Water Temperature
  • Satellite Maps
  • Weather Map
  • Weather Widgets
  • user-avatar
    Login

    Hourly Weather Bludenz

    Today, 24 February, Sunday

    Time Temperature Precipitation Wind Pressure Humidity
    00:00 +2°C° 0 mm 2 mps 712 mmHg 58%
    01:00 +2°C° 0 mm 2 mps 712 mmHg 55%
    02:00 +2°C° 0 mm 2 mps 712 mmHg 54%
    03:00 +2°C° 0 mm 2 mps 712 mmHg 53%
    04:00 +2°C° 0 mm 2 mps 711 mmHg 53%
    05:00 +2°C° 0 mm 2 mps 711 mmHg 52%
    06:00 +2°C° 0 mm 2 mps 711 mmHg 52%
    07:00 +2°C° 0 mm 2 mps 711 mmHg 52%
    08:00 +5°C° 0 mm 1 mps 712 mmHg 57%
    09:00 +7°C° 0 mm 1 mps 712 mmHg 62%
    10:00 +9°C° 0 mm 1 mps 712 mmHg 67%
    11:00 +10°C° 0 mm 1 mps 712 mmHg 71%
    12:00 +10°C° 0 mm 1 mps 712 mmHg 74%
    13:00 +11°C° 0 mm 1 mps 712 mmHg 77%
    14:00 +11°C° 0 mm 1 mps 712 mmHg 78%
    15:00 +10°C° 0 mm 1 mps 712 mmHg 79%
    16:00 +10°C° 0 mm 1 mps 712 mmHg 80%
    17:00 +9°C° 0 mm 1 mps 712 mmHg 80%
    18:00 +7°C° 0 mm 1 mps 712 mmHg 79%
    19:00 +6°C° 0 mm 1 mps 713 mmHg 79%
    20:00 +6°C° 0 mm 1 mps 713 mmHg 77%
    21:00 +4°C° 0 mm 2 mps 713 mmHg 75%
    22:00 +4°C° 0 mm 2 mps 713 mmHg 73%
    23:00 +4°C° 0 mm 2 mps 713 mmHg 73%

    Tomorrow, 25 February, Monday

    Time Temperature Precipitation Wind Pressure Humidity
    00:00 +4°C° 0 mm 2 mps 713 mmHg 72%
    01:00 +4°C° 0 mm 2 mps 713 mmHg 72%
    02:00 +4°C° 0 mm 2 mps 713 mmHg 71%
    03:00 +4°C° 0 mm 2 mps 713 mmHg 71%
    04:00 +4°C° 0 mm 2 mps 712 mmHg 71%
    05:00 +4°C° 0 mm 2 mps 712 mmHg 71%
    06:00 +4°C° 0 mm 2 mps 712 mmHg 70%
    07:00 +4°C° 0 mm 2 mps 712 mmHg 69%
    08:00 +6°C° 0 mm 2 mps 713 mmHg 72%
    09:00 +9°C° 0 mm 1 mps 713 mmHg 74%
    10:00 +10°C° 0 mm 1 mps 713 mmHg 77%
    11:00 +11°C° 0 mm 1 mps 713 mmHg 78%
    12:00 +12°C° 0 mm 1 mps 713 mmHg 79%
    13:00 +13°C° 0 mm 1 mps 712 mmHg 80%
    14:00 +12°C° 0 mm 1 mps 712 mmHg 81%
    15:00 +12°C° 0 mm 1 mps 712 mmHg 83%
    16:00 +12°C° 0 mm 1 mps 712 mmHg 85%
    17:00 +10°C° 0 mm 1 mps 712 mmHg 82%
    18:00 +8°C° 0 mm 2 mps 712 mmHg 79%
    19:00 +6°C° 0 mm 2 mps 712 mmHg 76%
    20:00 +6°C° 0 mm 2 mps 712 mmHg 70%
    21:00 +6°C° 0 mm 2 mps 712 mmHg 63%
    22:00 +6°C° 0 mm 2 mps 712 mmHg 57%
    23:00 +6°C° 0 mm 2 mps 712 mmHg 55%

    Day after tomorrow, 26 February, Tuesday

    Time Temperature Precipitation Wind Pressure Humidity
    00:00 +5°C° 0 mm 2 mps 713 mmHg 52%
    01:00 +5°C° 0 mm 2 mps 713 mmHg 50%
    02:00 +5°C° 0 mm 2 mps 712 mmHg 48%
    03:00 +5°C° 0 mm 2 mps 712 mmHg 47%
    04:00 +5°C° 0 mm 2 mps 712 mmHg 45%
    05:00 +5°C° 0 mm 2 mps 712 mmHg 44%
    06:00 +5°C° 0 mm 2 mps 712 mmHg 43%
    07:00 +5°C° 0 mm 2 mps 712 mmHg 41%
    08:00 +7°C° 0 mm 2 mps 712 mmHg 45%
    09:00 +10°C° 0 mm 1 mps 712 mmHg 49%
    10:00 +11°C° 0 mm 1 mps 712 mmHg 54%
    11:00 +12°C° 0 mm 1 mps 711 mmHg 58%
    12:00 +13°C° 0 mm 1 mps 711 mmHg 62%
    13:00 +14°C° 0 mm 1 mps 711 mmHg 66%
    14:00 +13°C° 0 mm 1 mps 711 mmHg 67%
    15:00 +13°C° 0 mm 1 mps 711 mmHg 69%
    16:00 +12°C° 0 mm 1 mps 710 mmHg 70%
    17:00 +11°C° 0 mm 1 mps 710 mmHg 69%
    18:00 +9°C° 0 mm 1 mps 711 mmHg 68%
    19:00 +7°C° 0 mm 1 mps 711 mmHg 68%
    20:00 +6°C° 0 mm 2 mps 711 mmHg 63%
    21:00 +6°C° 0 mm 2 mps 711 mmHg 59%
    22:00 +5°C° 0 mm 2 mps 711 mmHg 55%
    23:00 +5°C° 0 mm 2 mps 711 mmHg 52%

    27 February, Wednesday

    Time Temperature Precipitation Wind Pressure Humidity
    00:00 +5°C° 0 mm 2 mps 710 mmHg 49%
    01:00 +5°C° 0 mm 2 mps 710 mmHg 46%
    02:00 +5°C° 0 mm 2 mps 710 mmHg 45%
    03:00 +6°C° 0 mm 2 mps 709 mmHg 44%
    04:00 +6°C° 0 mm 2 mps 709 mmHg 43%
    05:00 +6°C° 0 mm 2 mps 709 mmHg 44%
    06:00 +6°C° 0 mm 2 mps 709 mmHg 44%
    07:00 +6°C° 0 mm 2 mps 708 mmHg 45%
    08:00 +8°C° 0 mm 2 mps 709 mmHg 50%
    09:00 +11°C° 0 mm 1 mps 709 mmHg 55%
    10:00 +13°C° 0 mm 1 mps 709 mmHg 60%
    11:00 +14°C° 0 mm 1 mps 708 mmHg 61%
    12:00 +15°C° 0 mm 1 mps 708 mmHg 61%
    13:00 +15°C° 0 mm 0 mps 708 mmHg 62%
    14:00 +14°C° 0 mm 0 mps 708 mmHg 65%
    15:00 +14°C° 0 mm 0 mps 707 mmHg 68%
    16:00 +13°C° 0 mm 0 mps 707 mmHg 71%
    17:00 +13°C° 0 mm 1 mps 707 mmHg 72%
    18:00 +11°C° 0 mm 1 mps 707 mmHg 73%
    19:00 +10°C° 0 mm 1 mps 707 mmHg 74%
    20:00 +10°C° 0 mm 1 mps 707 mmHg 71%
    21:00 +8°C° 0 mm 2 mps 707 mmHg 69%
    22:00 +8°C° 0 mm 2 mps 707 mmHg 67%
    23:00 +8°C° 0 mm 2 mps 706 mmHg 65%

    28 February, Thursday

    Time Temperature Precipitation Wind Pressure Humidity
    00:00 +8°C° 0 mm 2 mps 706 mmHg 63%
    01:00 +8°C° 0 mm 2 mps 706 mmHg 61%
    02:00 +7°C° 0 mm 2 mps 706 mmHg 60%
    03:00 +7°C° 0 mm 2 mps 706 mmHg 59%
    04:00 +7°C° 0 mm 2 mps 705 mmHg 58%
    05:00 +7°C° 0 mm 2 mps 705 mmHg 58%
    06:00 +7°C° 0 mm 2 mps 705 mmHg 57%
    07:00 +8°C° 0 mm 1 mps 705 mmHg 57%
    08:00 +9°C° 0 mm 1 mps 705 mmHg 59%
    09:00 +11°C° 0 mm 1 mps 705 mmHg 60%
    10:00 +13°C° 0 mm 1 mps 705 mmHg 62%
    11:00 +14°C° 0 mm 1 mps 705 mmHg 60%
    12:00 +15°C° 0 mm 1 mps 705 mmHg 58%
    13:00 +15°C° 0 mm 1 mps 705 mmHg 56%
    14:00 +15°C° 0 mm 1 mps 704 mmHg 59%
    15:00 +14°C° 0 mm 1 mps 704 mmHg 62%
    16:00 +14°C° 0 mm 1 mps 704 mmHg 64%
    17:00 +12°C° 0 mm 1 mps 704 mmHg 68%
    18:00 +10°C° 0 mm 1 mps 704 mmHg 72%
    19:00 +7°C° 0 mm 0 mps 704 mmHg 75%
    20:00 +7°C° 0 mm 0 mps 704 mmHg 75%
    21:00 +8°C° 0 mm 1 mps 704 mmHg 75%
    22:00 +7°C° 0 mm 1 mps 704 mmHg 75%
    23:00 +7°C° 0 mm 1 mps 704 mmHg 76%

    1 March, Friday

    Time Temperature Precipitation Wind Pressure Humidity
    00:00 +7°C° 0 mm 1 mps 704 mmHg 77%
    01:00 +6°C° 0 mm 1 mps 704 mmHg 77%
    02:00 +6°C° 0 mm 1 mps 704 mmHg 79%
    03:00 +6°C° 0 mm 1 mps 703 mmHg 80%
    04:00 +6°C° 0 mm 1 mps 703 mmHg 82%
    05:00 +6°C° 0 mm 1 mps 703 mmHg 83%
    06:00 +6°C° 0 mm 1 mps 703 mmHg 84%
    07:00 +5°C° 0 mm 1 mps 703 mmHg 85%
    08:00 +7°C° 0 mm 1 mps 703 mmHg 83%
    09:00 +7°C° 0 mm 0 mps 703 mmHg 80%
    10:00 +9°C° 0 mm 0 mps 703 mmHg 78%
    11:00 +10°C° 0 mm 1 mps 703 mmHg 77%
    12:00 +11°C° 0 mm 1 mps 702 mmHg 76%
    13:00 +12°C° 0 mm 1 mps 702 mmHg 75%
    14:00 +11°C° 0 mm 1 mps 702 mmHg 77%
    15:00 +11°C° 0 mm 1 mps 701 mmHg 79%
    16:00 +11°C° 0 mm 1 mps 701 mmHg 80%
    17:00 +10°C° 0 mm 1 mps 701 mmHg 85%
    18:00 +9°C° 0 mm 1 mps 701 mmHg 89%
    19:00 +8°C° 0 mm 1 mps 701 mmHg 93%
    20:00 +8°C° 0 mm 1 mps 702 mmHg 94%
    21:00 +6°C° 0 mm 0 mps 702 mmHg 95%
    22:00 +6°C° 0 mm 0 mps 702 mmHg 97%
    23:00 +6°C° 0 mm 0 mps 702 mmHg 96%
    Show more